GMT,Max TemperatureF,Mean TemperatureF,Min TemperatureF,Max Dew PointF,MeanDew PointF,Min DewpointF,Max Humidity, Mean Humidity, Min Humidity, Max Sea Level PressureIn, Mean Sea Level PressureIn, Min Sea Level PressureIn, Max VisibilityMiles, Mean VisibilityMiles, Min VisibilityMiles, Max Wind SpeedMPH, Mean Wind SpeedMPH, Max Gust SpeedMPH,PrecipitationIn, CloudCover, Events, WindDirDegrees
2012-11-1,50,44,39,48,40,35,93,83,62,29.15,28.93,28.82,16,6,5,20,11,26,0.03,3,Rain,234
2012-11-2,52,46,39,39,37,36,87,76,50,29.42,29.28,29.15,18,8,6,20,13,30,0.00,2,Rain,234
2012-11-3,50,43,35,40,36,33,95,78,51,29.53,29.43,29.33,19,7,3,22,8,,0.00,2,Fog,220
2012-11-4,48,41,34,45,38,33,100,91,81,29.50,29.35,29.12,9,5,2,25,6,,0.55,5,Rain,349
2012-11-5,50,41,32,41,37,30,100,83,47,30.04,29.74,29.47,17,4,0,9,4,,0.00,3,Fog,332
2012-11-6,50,41,32,45,39,30,97,84,58,30.22,30.14,30.04,18,6,2,15,8,,0.01,3,Rain,269
2012-11-7,51,46,40,43,42,39,100,83,67,30.30,30.25,30.18,19,7,6,18,9,24,0.01,3,,249
2012-11-8,55,50,46,46,43,40,87,77,60,30.18,30.09,30.04,19,8,6,13,10,,0.00,5,,251
2012-11-9,52,49,46,46,43,40,87,79,64,30.04,29.81,29.56,18,8,6,13,7,,0.00,5,Rain,199
2012-11-10,50,44,39,49,45,37,94,89,77,29.59,29.46,29.42,19,7,1,12,8,,0.08,4,Rain,239
2012-11-11,51,42,33,41,37,32,100,84,47,30.12,29.91,29.62,19,6,3,10,4,,0.01,1,Fog,256
2012-11-12,54,46,39,54,46,37,100,93,83,30.23,30.14,30.09,13,6,4,12,6,,0.04,4,Rain,196
2012-11-13,59,54,50,52,51,48,100,89,69,30.36,30.31,30.21,16,7,5,12,8,20,0.01,6,,204
2012-11-14,57,50,42,50,46,40,94,84,49,30.35,30.31,30.27,19,6,2,10,5,,0.00,5,,111
2012-11-15,50,46,41,45,42,39,100,89,67,30.27,30.19,30.09,6,3,1,7,3,,0.00,6,Fog,94
2012-11-16,50,46,42,48,44,39,100,92,83,30.09,29.95,29.77,4,2,1,9,4,,0.00,6,Rain,135
2012-11-17,54,49,44,53,47,39,94,85,71,29.89,29.76,29.68,19,6,1,14,6,,0.00,4,Rain,261
2012-11-18,49,41,33,39,36,32,100,82,54,30.01,29.97,29.89,19,9,6,7,4,,0.01,1,,214
2012-11-19,52,42,33,48,41,32,93,82,57,29.98,29.84,29.80,19,8,6,17,8,,0.00,4,Rain,174
2012-11-20,56,54,51,53,51,48,100,91,82,29.80,29.78,29.74,16,7,2,20,13,29,0.03,6,Rain,187
2012-11-21,52,47,42,50,46,41,94,90,81,29.99,29.76,29.53,17,6,4,26,10,,0.20,5,Rain,185
2012-11-22,55,50,44,49,46,43,94,80,60,29.98,29.84,29.65,16,7,4,26,15,44,0.31,4,Rain,197
2012-11-23,52,46,39,45,42,39,100,86,62,30.02,29.88,29.71,19,8,5,15,9,,0.00,2,Rain,215
2012-11-24,51,43,35,50,43,36,100,95,87,30.01,29.80,29.29,7,4,1,15,6,,0.31,5,Fog-Rain,86
2012-11-25,52,48,44,52,44,36,100,79,59,29.74,29.59,29.21,19,7,2,34,19,47,0.02,3,Rain,224
2012-11-26,48,46,44,45,44,43,100,90,76,29.56,29.47,29.42,18,6,3,15,8,,0.16,4,Rain,226
2012-11-27,47,44,42,45,42,39,93,88,73,29.86,29.66,29.50,19,6,3,16,8,23,0.08,5,Rain,341
2012-11-28,45,41,37,39,37,31,87,81,70,29.98,29.93,29.86,19,8,6,13,9,,0.00,5,Rain,350
2012-11-29,43,37,31,36,32,30,93,81,68,29.95,29.90,29.86,16,8,6,10,6,,0.00,1,,320
2012-11-30,40,35,30,34,31,28,100,87,68,29.97,29.89,29.83,12,6,4,7,4,,0.00,3,Fog,294